Regional Weather Roundup
Issued by NWS

Home | Current Version | Previous Version | Graphics & Text | Print | Product List | Glossary On
Versions: 1 2 3 4 5 6 7 8 9 10 11 12 13 14 15 16 17 18 19 20 21 22 23 24 25 26 27 28 29 30 31 32 33 34 35 36 37 38 39 40 41 42 43 44 45 46 47 48 49 50
000
ASUS43 KLMK 050710
RWRKY
KENTUCKY REGIONAL WEATHER ROUNDUP
NATIONAL WEATHER SERVICE LOUISVILLE KY
300 AM EDT WED AUG 05 2015

NOTE "FAIR" INDICATES FEW OR NO CLOUDS BELOW 12,000 FEET
WITH NO SIGNIFICANT WEATHER AND/OR OBSTRUCTIONS TO VISIBILITY.

KYZ001>023-026-027-061>063-070>075-050800-
WESTERN AND SOUTH CENTRAL KENTUCKY

CITY           SKY/WX    TMP DP  RH WIND       PRES   REMARKS
PADUCAH        CLOUDY    76  69  79 S7        29.97F
HENDERSON      MOCLDY    70  66  88 E3        29.99F
OWENSBORO      MOCLDY    72  69  90 CALM      30.00F
HOPKINSVILLE   MOCLDY    75  67  76 E2        29.99F
BOWLING GREEN  PTCLDY    72  68  87 CALM      30.01F
GLASGOW        MOCLDY    71  70  98 CALM      30.01F
$$

KYZ024-025-028>034-038-045-046-053-050800-
NORTH CENTRAL KENTUCKY

CITY           SKY/WX    TMP DP  RH WIND       PRES   REMARKS
LOUISVILLE/SDF MOCLDY    71  67  87 W3        30.01S
LOUISVILLE/LOU MOCLDY    70  68  93 CALM      30.02F FOG
FORT KNOX      MOCLDY    68  67  96 CALM      30.00S FOG
$$

KYZ035>037-039>044-047>052-055>060-089>105-050800-
NORTHEAST KENTUCKY

CITY           SKY/WX    TMP DP  RH WIND       PRES   REMARKS
LEXINGTON      MOCLDY    66  65  96 S5        30.03S
COVINGTON      CLOUDY    70  62  76 N3        30.03R
FRANKFORT      MOCLDY    67  65  93 CALM      30.02R
$$

KYZ054-064>069-076>088-106>120-050800-
SOUTHEAST KENTUCKY

CITY           SKY/WX    TMP DP  RH WIND       PRES   REMARKS
JACKSON        CLOUDY    68  66  93 CALM      30.04S FOG
LONDON         MOCLDY    69  65  86 CALM      30.05S
SOMERSET       MOCLDY    66  66 100 CALM      30.05S
MIDDLESBORO    MOCLDY    69  67  92 CALM      30.06S
MONTICELLO     PTSUNNY   69  69 100 CALM      30.06F
$$



USA.gov is the U.S. government's official web portal to all federal, state and local government web resources and services.